Flag Weather past 2 weeks in Springfield, Illinois, U.S.A.

Now
51 °F

Mostly cloudy.


Feels Like: 50 °F
Forecast: 32 / 45 °F
Wind: 5 mph from Southeast

Location: Capital Airport

Current Time: Oct 30, 2014 at 7:11:17 PM

Latest Report: Oct 30, 2014 at 5:52 PM


Visibility: 10 mi

Pressure: 30.06 "Hg

Humidity: 74%

Dew point: 43 °F

Location of SpringfieldLocation

Historic Weather in Springfield — Graph

°F

Springfield temperature yesterday

Maximum temperature yesterday: 55 °F (at 12:52 PM)
Minimum temperature yesterday: 36 °F (at 11:52 PM)
Average temperature yesterday: 46 °F

Past Weeks' High & Low Weather Summary

 TemperatureHumidityPressure
High80 °F (Oct 25, 1:52 PM)97% (Oct 24, 6:52 AM)30.36 "Hg (Oct 24, 6:52 AM)
Low33 °F (Oct 30, 2:52 AM)27% (Oct 26, 2:52 PM)29.62 "Hg (Oct 27, 3:52 PM)
Average56 °F68%30.02 "Hg
* Reported Oct 15 5:03 PM — Oct 30 5:52 PM, Springfield, Weather by CustomWeather, © 2014

Note: Actual official high and low records may vary slightly from our data, if they occured in-between our weather recording intervals... More about our weather records

Advertising

Springfield weather history for previous 24 hours

 ConditionsComfort  
Time TempWeatherWind HumidityBarometerVisibility
5:52 PM
Oct 30
51 °FMostly cloudy.5 mph74%30.06 "Hg10 mi
4:52 PM51 °FOvercast.5 mph74%30.06 "Hg10 mi
3:52 PM52 °FLight rain. Mostly cloudy.8 mph72%30.04 "Hg10 mi
2:52 PM53 °FMostly cloudy.8 mph64%30.06 "Hg10 mi
1:52 PM52 °FMore clouds than sun.13 mph69%30.04 "Hg10 mi
12:52 PM52 °FOvercast.7 mph61%30.11 "Hg10 mi
11:52 AM53 °FOvercast.12 mph61%30.12 "Hg10 mi
10:52 AM52 °FScattered clouds.13 mph61%30.14 "Hg10 mi
9:52 AM49 °FPassing clouds.10 mph69%30.15 "Hg10 mi
8:52 AM44 °FSunny.8 mph76%30.16 "Hg10 mi
7:52 AM38 °FPassing clouds.7 mph86%30.16 "Hg10 mi
6:52 AM36 °FClear.No wind89%30.16 "Hg10 mi
5:52 AM38 °FClear.3 mph86%30.16 "Hg10 mi
4:52 AM36 °FClear.3 mph85%30.16 "Hg10 mi
3:52 AM35 °FClear.No wind88%30.16 "Hg10 mi
2:52 AM33 °FClear.No wind92%30.17 "Hg10 mi
1:52 AM34 °FClear.No wind92%30.18 "Hg8 mi
12:52 AM35 °FClear.No wind88%30.17 "Hg10 mi
11:52 PM
Oct 29
36 °FClear.No wind89%30.17 "Hg10 mi
10:52 PM37 °FClear.No wind86%30.17 "Hg10 mi
9:52 PM39 °FClear.No wind86%30.17 "Hg10 mi
8:52 PM41 °FClear.No wind76%30.17 "Hg10 mi
7:52 PM42 °FClear.No wind76%30.18 "Hg10 mi
Weather by CustomWeather, © 2014

See weather overviewHow to use our weather pages